Regional Weather Roundup
Issued by NWS

Home | Current Version | Previous Version | Text Only | Print | Product List | Glossary On
Versions: 1 2 3 4 5 6 7 8 9 10 11 12 13 14 15 16 17 18 19 20 21 22 23 24 25 26 27 28 29 30 31 32 33 34 35 36 37 38 39 40 41 42 43 44 45 46 47 48 49 50
000
ASUS43 KOAX 210002
RWRNE

WEATHER ROUNDUP FOR NEBRASKA
NATIONAL WEATHER SERVICE OMAHA NE
600 PM CST THU NOV 20 2014

NOTES: SATELLITE DATA IS BEING USED TO AUGMENT CLOUD COVER ABOVE
       12000 FEET.
       "FAIR" INDICATES FEW OR NO CLOUDS BELOW 12,000 FEET WITH NO
       SIGNIFICANT WEATHER AND/OR OBSTRUCTIONS TO VISIBILITY.

  * THESE STATIONS DO NOT REPORT WEATHER SUCH AS RAIN...SNOW OR FOG.

NEZ001>004-019>022-054>056-210100-
NEBRASKA PANHANDLE

CITY           SKY/WX    TMP DP  RH WIND       PRES   REMARKS
SCOTTSBLUFF    CLEAR     35  15  44 E3        29.93R
6HR MIN TEMP:  35; 6HR MAX TEMP:  54;

ALLIANCE       CLEAR     31  16  54 S10       29.92S WCI  22
6HR MIN TEMP:  31; 6HR MAX TEMP:  53;

CHADRON        CLEAR     34  23  64 NW3       29.92S
6HR MIN TEMP:  32; 6HR MAX TEMP:  45;

KIMBALL        PTCLDY    43  11  27 CALM      29.94R
SIDNEY         CLEAR     37  15  40 S12       29.95S WCI  29
6HR MIN TEMP:  35; 6HR MAX TEMP:  55;

$$

NEZ057>060-069>072-079>082-210100-
SOUTHWEST NEBRASKA

CITY           SKY/WX    TMP DP  RH WIND       PRES   REMARKS
NORTH PLATTE   CLEAR     33  21  61 SE10      30.03R WCI  25
6HR MIN TEMP:  33; 6HR MAX TEMP:  44;

IMPERIAL       CLEAR     31  16  54 SE7       30.00R WCI  24
6HR MIN TEMP:  31; 6HR MAX TEMP:  50;

MCCOOK         CLEAR     34  20  56 E7        30.04R WCI  28
6HR MIN TEMP:  34; 6HR MAX TEMP:  45;

$$

NEZ005>010-023>029-035>040-094-210100-
NORTH CENTRAL NEBRASKA

CITY           SKY/WX    TMP DP  RH WIND       PRES   REMARKS
VALENTINE      CLEAR     28  21  75 E9        30.01S WCI  19
6HR MIN TEMP:  27; 6HR MAX TEMP:  34;

BROKEN BOW     CLEAR     30  19  63 SE7       30.06R WCI  23
6HR MIN TEMP:  30; 6HR MAX TEMP:  40;

ORD            CLEAR     29  20  69 SE9       30.09R WCI  20
6HR MIN TEMP:  29; 6HR MAX TEMP:  35;

$$

NEZ041-046>049-061>064-073>077-083>087-210100-
SOUTH CENTRAL NEBRASKA

CITY           SKY/WX    TMP DP  RH WIND       PRES   REMARKS
GRAND ISLAND   CLEAR     27  20  75 E7        30.13S WCI  19
6HR MIN TEMP:  27; 6HR MAX TEMP:  36;

AURORA         CLEAR     24  20  83 E7        30.13S WCI  16
HASTINGS       CLEAR     32  18  56 SE8       30.11R WCI  25
6HR MIN TEMP:  32; 6HR MAX TEMP:  39;

KEARNEY *      CLEAR     28  18  64 E9        30.11R WCI  20
YORK           CLEAR     25  19  80 E7        30.16R WCI  17
$$

NEZ011>018-030>034-042>045-210100-
NORTHEAST NEBRASKA

CITY           SKY/WX    TMP DP  RH WIND       PRES   REMARKS
NORFOLK        CLEAR     20  15  81 SE7       30.16S WCI  11
6HR MIN TEMP:  20; 6HR MAX TEMP:  29;

ALBION         CLEAR     24  18  77 E6        30.14S WCI  17
BLAIR          CLEAR     24  17  73 E5        30.20R WCI  19
COLUMBUS *     CLEAR     21  14  73 E6        30.19S WCI  14
FREMONT        CLEAR     26  18  73 CALM      30.21R
TEKAMAH        CLOUDY    27  18  69 E6        30.22R WCI  20
6HR MIN TEMP:  27; 6HR MAX TEMP:  31;

WAYNE          CLOUDY    25  18  76 E3        30.18F
$$

NEZ050>053-065>068-078-088>093-210100-
SOUTHEAST NEBRASKA

CITY           SKY/WX    TMP DP  RH WIND       PRES   REMARKS
LINCOLN        CLEAR     26  18  71 E5        30.21R WCI  20
6HR MIN TEMP:  26; 6HR MAX TEMP:  36;

OMAHA EPPLEY   PTCLDY    25  17  72 NE3       30.24R
6HR MIN TEMP:  24; 6HR MAX TEMP:  30;

BEATRICE       CLEAR     29  19  67 E3        30.18R
FALLS CITY     CLEAR     26  18  71 E5        30.21S WCI  20
6HR MIN TEMP:  26; 6HR MAX TEMP:  36;

NEBRASKA CITY  CLEAR     26  15  65 NE3       30.21R
$$

NEZ044-045-051>053-067-210100-
OMAHA AREA

CITY           SKY/WX    TMP DP  RH WIND       PRES   REMARKS
OMAHA EPPLEY   PTCLDY    25  17  72 NE3       30.24R
6HR MIN TEMP:  24; 6HR MAX TEMP:  30;

BLAIR          CLEAR     24  17  73 E5        30.20R WCI  19
FREMONT        CLEAR     26  18  73 CALM      30.21R
MILLARD        CLEAR     28  18  67 CALM      30.22R
OFFUTT AFB     CLEAR     24  17  74 NE3       30.22R
WAHOO          FAIR      22  15  75 E6        30.21R WCI  14
$$



USA.gov is the U.S. government's official web portal to all federal, state and local government web resources and services.